Tracking 29892 objects as of 21-Nov-2024
HD Live streaming from Space Station
objects crossing your sky now

METEOR 2-6 DEB

Track METEOR 2-6 DEB now!
10-day predictions


NORAD ID: 38837
Int'l Code: 1980-073P
Perigee: 667.1 km
Apogee: 688.3 km
Inclination: 81.2 °
Period: 98.2 minutes
Semi major axis: 7048 km
RCS: 0.003 m2 (small)
Launch date: September 9, 1980
Source: Commonwealth of Independent States (former USSR) (CIS)
Launch site: PLESETSK MISSILE AND SPACE COMPLEX (PKMTR)

Note: This is SATELLITE DEBRIS
Your satellite tracking list
Your tracking list is empty




NASA's NSSDC Master Catalog

Two Line Element Set (TLE):
1 38837U 80073P   24301.36302998  .00069275  00000-0  12214-1 0  9997
2 38837  81.1841 155.1885 0015031 347.3628 192.0163 14.67043991594015
Source of the keplerian elements: AFSPC